STARLINK-30591, 58088

Orbit data source: Space-Track

STARLINK-30591, 58088 is a payload satellite owned by SpaceX/Seattle (US) in LEO that was launched on Wed, 18 Oct 2023 UTC via an FALCON 9 launch vehicle from the Air Force Eastern Test Range (AFETR). Payload-class satellites include a variety of spacecraft equipped with specific instruments for various scientific and technological missions. These include communications satellites like Starlink; space stations such as the ISS; scientific satellites like the Hubble; Earth observation satellites from companies like Planet Labs, Umbra, and HawkEye 360; GPS; miniature CubeSats for education and research; and military/defense satellites.

Loading next visibility...
Identifier
58088, 2023-160P
Orbit
LEO
Country
Flag of USUS
Related business
Manufacturer
SpaceX/Seattle
Mission
Operational Commercial Communications
Bus & Motor
STARLINK V2M, Unknown motor
Mass
730 kg wet, ~700 kg dry
Launch date (UTC)
2023-10-18 (3 years ago)
Launch vehicle
FALCON 9
Launch site
Air Force Eastern Test Range (AFETR)
Object type
Payload
Rocket body
Debris
Shape & HBR
Box + 2 Pan, 17.7 m
Radar Cross Section
33.884 m², Large (>1 m²)

Expand to show TLE details & history
Last TLE update: 2 days ago

TLE from 2 days ago
0 STARLINK-30591
1 58088U 23160P   26171.17831305  .00001814  00000-0  75492-4 0  9991
2 58088  43.0023 218.7838 0001958 268.8498  91.2129 15.27553012148624
Epoch: 2026-06-20T04:16Z
TLE epoch observation values (Epoch: 2026-06-20T04:16:46.247Z)
Latitude
-0.00004°
Longitude
-113.80561°
Altitude
482.934 km
Speed
7.626 km/s
True Right ascension
14h 35m 08s
True Declination
0° 00' 00"
Sunlit
Object was in full shadow at epoch
Visualization orbit readout
Latitude
Unknown
Longitude
Unknown
Altitude
Unknown
Speed
Unknown
Apparent Right ascension
Unknown
Apparent Declination
Unknown
Sunlit
N/A
Visualization observer readout
Local Sidereal Time
21:33:42
Azimuth
Unknown
Elevation
Unknown
Doppler factor
Unknown
Orbital elements
Apogee altitude
486.418 km
Perigee altitude
483.731 km
Semi-major axis
6,863.212 km
Eccentricity
0.0002
Inclination
43.0023°
RAAN
218.7838°
Arg. of periapsis
268.8498°
True anomaly
91.23533°
Mean anomaly
91.2129°
Eccentric anomaly
91.22412°
Mean motion
3.81726 °/min
Orbital period
94.31 mins
BSTAR
0.000075492
Loading maneuver chart data...
Computing Atmospheric mass density...
Loading historical data...
Loading historical data...
Loading historical data...
Loading historical data...
Loading historical data...
Loading historical data...
Loading historical data...

Documentation

Showing up to 5 results
|